Weather History for KCLS - February, 2014

Change the Weather History Date:

Sunday, February 16, 2014

  Actual Average (KOLM) Record (KOLM)
Temperature  
Mean Temperature 40 °F 41 °F  
Max Temperature 46 °F 49 °F 60 °F (2015)
Min Temperature 35 °F 33 °F 14 °F (1956)
Degree Days  
Heating Degree Days 24 24  
Month to date heating degree days 385  
Since 1 July heating degree days 3436  
Cooling Degree Days 0 0  
Month to date cooling degree days 0  
Year to date cooling degree days 0  
Moisture  
Dew Point 39 °F    
Average Humidity 90    
Maximum Humidity 100    
Minimum Humidity 71    
Precipitation  
Precipitation 1.06 in 0.17 in 2.23 in (1949)
Month to date precipitation 3.13  
Year to date precipitation 10.97  
Sea Level Pressure  
Sea Level Pressure 29.87 in    
Wind  
Wind Speed 9 mph (South)    
Max Wind Speed 22 mph    
Max Gust Speed 33 mph    
Visibility 7 miles    
Events Rain    
T = Trace of Precipitation, MM = Missing Value Source: NWS Daily Summary

Daily Weather History Graph

Daily Weather History Graph

Search for Another Location

Airport or City:

Trip Planner

Search our weather history database for the weather conditions in past years. The results will help you decide how hot, cold, wet, or windy it might be!

Date:

Astronomy

Feb. 16, 2014 Rise Set
Actual Time 7:13 AM PST 5:38 PM PST
Civil Twilight 6:42 AM PST 6:09 PM PST
Nautical Twilight 6:07 AM PST 6:45 PM PST
Astronomical Twilight 5:32 AM PST 7:20 PM PST
Moon 7:51 PM PST (2/16) 7:37 AM PST (2/16)
Length of Visible Light 11h 26m
Length of Day
10h 24m
Full, 97% of the Moon is Illuminated
Feb 16
Full
Feb 22
Last Quarter
Mar 1
New
Mar 8
First Quarter
Mar 16
Full

Hourly Weather History & Observations

Time (PST) Temp. Windchill Dew Point Humidity Pressure Visibility Wind Dir Wind Speed Gust Speed Precip Events Conditions
12:15 AM 39.2 °F 35.9 °F 37.4 °F 93% 29.77 in 6.0 mi SSW 4.6 mph - 0.02 in Rain Light Rain
12:35 AM 39.2 °F 35.0 °F 37.4 °F 93% 29.75 in 8.0 mi South 5.8 mph - 0.02 in Rain Light Rain
12:55 AM 37.4 °F 33.8 °F 37.4 °F 100% 29.75 in 10.0 mi SSW 4.6 mph - 0.02 in   Mostly Cloudy
1:15 AM 37.4 °F 32.1 °F 37.4 °F 100% 29.75 in 10.0 mi South 6.9 mph - 0.01 in   Overcast
1:35 AM 37.4 °F 32.1 °F 37.4 °F 100% 29.76 in 10.0 mi South 6.9 mph - 0.01 in   Overcast
1:55 AM 39.2 °F 33.6 °F 37.4 °F 93% 29.77 in 10.0 mi South 8.1 mph - 0.01 in   Mostly Cloudy
2:15 AM 39.2 °F 35.9 °F 37.4 °F 93% 29.79 in 10.0 mi West 4.6 mph - N/A   Overcast
2:35 AM 37.4 °F 33.8 °F 37.4 °F 100% 29.81 in 10.0 mi SW 4.6 mph - N/A   Overcast
2:55 AM 39.2 °F 33.6 °F 37.4 °F 93% 29.82 in 10.0 mi South 8.1 mph - N/A   Mostly Cloudy
3:15 AM 37.4 °F 32.1 °F 37.4 °F 100% 29.82 in 10.0 mi South 6.9 mph - N/A   Mostly Cloudy
3:35 AM 37.4 °F 32.1 °F 35.6 °F 93% 29.83 in 10.0 mi South 6.9 mph - N/A   Overcast
3:55 AM 37.4 °F 31.4 °F 35.6 °F 93% 29.84 in 10.0 mi South 8.1 mph - N/A   Mostly Cloudy
4:15 AM 37.4 °F 32.8 °F 35.6 °F 93% 29.85 in 10.0 mi SSW 5.8 mph - N/A   Mostly Cloudy
4:35 AM 37.4 °F 30.8 °F 35.6 °F 93% 29.85 in 10.0 mi SSW 9.2 mph - N/A   Mostly Cloudy
4:55 AM 37.4 °F 32.8 °F 35.6 °F 93% 29.86 in 10.0 mi SSW 5.8 mph - N/A   Overcast
5:15 AM 39.2 °F 35.0 °F 37.4 °F 93% 29.88 in 10.0 mi NW 5.8 mph - N/A   Overcast
5:35 AM 37.4 °F 30.8 °F 35.6 °F 93% 29.88 in 3.0 mi South 9.2 mph 16.1 mph 0.04 in Rain Light Rain
5:55 AM 37.4 °F 32.1 °F 35.6 °F 93% 29.88 in 10.0 mi SSW 6.9 mph - 0.04 in   Overcast
6:15 AM 37.4 °F 32.1 °F 35.6 °F 93% 29.89 in 10.0 mi South 6.9 mph - 0.01 in Rain Light Rain
6:35 AM 35.6 °F 31.7 °F 35.6 °F 100% 29.90 in 10.0 mi South 4.6 mph - 0.01 in   Mostly Cloudy
6:55 AM 35.6 °F 31.7 °F 35.6 °F 100% 29.90 in 10.0 mi South 4.6 mph - 0.01 in   Mostly Cloudy
7:35 AM 37.4 °F 32.8 °F 35.6 °F 93% 29.93 in 10.0 mi South 5.8 mph - N/A   Scattered Clouds
7:55 AM 37.4 °F 32.8 °F 35.6 °F 93% 29.95 in 10.0 mi South 5.8 mph - N/A   Clear
8:15 AM 37.4 °F 32.8 °F 37.4 °F 100% 29.95 in 10.0 mi South 5.8 mph - N/A   Clear
8:35 AM 39.2 °F 33.6 °F 37.4 °F 93% 29.96 in 10.0 mi South 8.1 mph - N/A   Mostly Cloudy
8:55 AM 39.2 °F 35.0 °F 37.4 °F 93% 29.98 in 10.0 mi South 5.8 mph - N/A   Overcast
9:15 AM 39.2 °F 33.6 °F 37.4 °F 93% 29.98 in 10.0 mi South 8.1 mph - N/A   Mostly Cloudy
9:35 AM 41.0 °F 35.8 °F 37.4 °F 87% 29.99 in 10.0 mi South 8.1 mph - N/A   Partly Cloudy
9:55 AM 42.8 °F 36.6 °F 39.2 °F 87% 29.99 in 10.0 mi South 11.5 mph - N/A   Partly Cloudy
10:15 AM 44.6 °F 39.2 °F 39.2 °F 81% 30.00 in 10.0 mi South 10.4 mph 16.1 mph N/A   Mostly Cloudy
10:35 AM 42.8 °F 36.2 °F 39.2 °F 87% 30.01 in 10.0 mi SSE 12.7 mph 16.1 mph N/A   Overcast
10:55 AM 44.6 °F 38.1 °F 39.2 °F 81% 30.01 in 10.0 mi South 13.8 mph 20.7 mph N/A   Mostly Cloudy
11:15 AM 46.4 °F 40.1 °F 39.2 °F 76% 30.01 in 10.0 mi South 15.0 mph 20.7 mph N/A   Mostly Cloudy
11:35 AM 46.4 °F 39.8 °F 39.2 °F 76% 30.01 in 10.0 mi South 16.1 mph 24.2 mph N/A   Scattered Clouds
11:55 AM 46.4 °F 39.5 °F 37.4 °F 71% 30.01 in 10.0 mi South 17.3 mph 24.2 mph N/A   Partly Cloudy
12:15 PM 46.4 °F 39.5 °F 37.4 °F 71% 30.00 in 9.0 mi South 17.3 mph 24.2 mph N/A   Partly Cloudy
12:35 PM 44.6 °F 37.4 °F 39.2 °F 81% 30.00 in 7.0 mi South 16.1 mph 27.6 mph N/A Rain Light Rain
12:55 PM 46.4 °F 40.7 °F 39.2 °F 76% 29.99 in 10.0 mi South 12.7 mph - N/A   Mostly Cloudy
1:15 PM 46.4 °F 40.1 °F 39.2 °F 76% 29.99 in 5.0 mi South 15.0 mph 26.5 mph N/A   Haze
1:35 PM 44.6 °F 38.1 °F 39.2 °F 81% 29.97 in 10.0 mi South 13.8 mph 27.6 mph N/A   Mostly Cloudy
1:55 PM 46.4 °F 40.1 °F 39.2 °F 76% 29.96 in 10.0 mi South 15.0 mph 19.6 mph N/A   Scattered Clouds
2:15 PM 46.4 °F 40.7 °F 39.2 °F 76% 29.94 in 8.0 mi South 12.7 mph 20.7 mph N/A Rain Light Rain
2:35 PM 44.6 °F 37.4 °F 39.2 °F 81% 29.93 in 7.0 mi South 16.1 mph 21.9 mph N/A   Mostly Cloudy
2:55 PM 44.6 °F 36.9 °F 39.2 °F 81% 29.91 in 4.0 mi South 18.4 mph 31.1 mph N/A Rain Light Rain
3:15 PM 44.6 °F 36.9 °F 41.0 °F 87% 29.89 in 4.0 mi South 18.4 mph 27.6 mph N/A Rain Light Rain
3:35 PM 44.6 °F 37.2 °F 41.0 °F 87% 29.88 in 4.0 mi South 17.3 mph 26.5 mph N/A Rain Light Rain
3:55 PM 44.6 °F 37.4 °F 41.0 °F 87% 29.89 in 3.0 mi South 16.1 mph 26.5 mph N/A Rain Light Rain
4:15 PM 44.6 °F 36.9 °F 41.0 °F 87% 29.87 in 2.5 mi South 18.4 mph 29.9 mph N/A   Mostly Cloudy
4:35 PM 44.6 °F 36.1 °F 41.0 °F 87% 29.85 in 4.0 mi South 21.9 mph 33.4 mph N/A Rain Light Rain
4:55 PM 44.6 °F 36.6 °F 41.0 °F 87% 29.84 in 3.0 mi South 19.6 mph 32.2 mph N/A Rain Light Rain
5:15 PM 44.6 °F 36.6 °F 41.0 °F 87% 29.83 in 2.5 mi South 19.6 mph 32.2 mph N/A   Overcast
5:35 PM 44.6 °F 36.9 °F 41.0 °F 87% 29.82 in 4.0 mi South 18.4 mph 29.9 mph N/A Rain Light Rain
5:55 PM 44.6 °F 36.9 °F 41.0 °F 87% 29.82 in 5.0 mi South 18.4 mph 27.6 mph 0.02 in Rain Light Rain
6:15 PM 44.6 °F 37.2 °F 42.8 °F 93% 29.81 in 5.0 mi South 17.3 mph 26.5 mph 0.02 in   Overcast
6:35 PM 44.6 °F 37.2 °F 42.8 °F 93% 29.80 in 5.0 mi South 17.3 mph 31.1 mph 0.04 in Rain Light Rain
6:55 PM 44.6 °F 37.2 °F 42.8 °F 93% 29.80 in 4.0 mi South 17.3 mph 29.9 mph 0.04 in Rain Light Rain
7:15 PM 44.6 °F 36.9 °F 42.8 °F 93% 29.80 in 4.0 mi South 18.4 mph 28.8 mph 0.02 in   Overcast
7:35 PM 44.6 °F 37.2 °F 42.8 °F 93% 29.80 in 4.0 mi South 17.3 mph 28.8 mph 0.06 in Rain Light Rain
7:55 PM 44.6 °F 37.8 °F 42.8 °F 93% 29.80 in 3.0 mi South 15.0 mph 25.3 mph 0.08 in   Mostly Cloudy
8:15 PM 44.6 °F 37.8 °F 42.8 °F 93% 29.80 in 3.0 mi SSW 15.0 mph 26.5 mph 0.02 in Rain Light Rain
8:35 PM 44.6 °F 38.4 °F 42.8 °F 93% 29.80 in 5.0 mi SSW 12.7 mph 20.7 mph 0.05 in Rain Light Rain
8:55 PM 44.6 °F 39.2 °F 42.8 °F 93% 29.79 in 5.0 mi South 10.4 mph 17.3 mph 0.09 in Rain Light Rain
9:15 PM 44.6 °F 39.2 °F 42.8 °F 93% 29.80 in 4.0 mi SSW 10.4 mph 18.4 mph 0.04 in Rain Light Rain
9:35 PM 44.6 °F 39.2 °F 42.8 °F 93% 29.80 in 5.0 mi SSW 10.4 mph 17.3 mph 0.09 in Rain Light Rain
9:55 PM 44.6 °F 39.2 °F 42.8 °F 93% 29.79 in 5.0 mi South 10.4 mph 16.1 mph 0.13 in Rain Rain
10:15 PM 44.6 °F 39.7 °F 42.8 °F 93% 29.79 in 5.0 mi South 9.2 mph - 0.04 in Rain Light Rain
10:35 PM 44.6 °F 40.7 °F 44.6 °F 100% 29.79 in 4.0 mi South 6.9 mph - 0.12 in Rain Rain
10:55 PM 44.6 °F 42.2 °F 44.6 °F 100% 29.79 in 4.0 mi NW 4.6 mph - 0.22 in Rain Heavy Rain
11:15 PM 44.6 °F - 42.8 °F 93% 29.79 in 3.0 mi Calm Calm - 0.12 in Rain Heavy Rain
11:35 PM 44.6 °F 40.7 °F 42.8 °F 93% 29.80 in 3.0 mi NW 6.9 mph - 0.26 in Rain Heavy Rain
11:55 PM 42.8 °F 38.0 °F 41.0 °F 93% 29.80 in 2.5 mi SW 8.1 mph 19.6 mph 0.40 in Rain Rain